| time (UTC) | temp F | wind direction | speed MPH | gust MPH | rain 1hr in | rain 24hr in | rain mn in | humidity % | barometer mb |
| 20260507093531 | 39 | 0 | 0.0 | 3.0 | 0.00 | 0.00 | 0.00 | 84 | 1020.9 |
| 20260507093042 | 39 | 0 | 0.0 | 3.0 | 0.00 | 0.00 | 0.00 | 83 | 1020.9 |
| 20260507092531 | 40 | 0 | 0.0 | 0.0 | 0.00 | 0.00 | 0.00 | 81 | 1020.8 |
| 20260507092028 | 40 | 0 | 0.0 | 0.0 | 0.00 | 0.00 | 0.00 | 81 | 1020.7 |
| 20260507091544 | 40 | 0 | 0.0 | 0.0 | 0.00 | 0.00 | 0.00 | 81 | 1020.6 |
| 20260507091034 | 41 | 0 | 0.0 | 0.0 | 0.00 | 0.00 | 0.00 | 81 | 1020.6 |
| 20260507090535 | 41 | 0 | 0.0 | 0.0 | 0.00 | 0.00 | 0.00 | 81 | 1020.6 |
| 20260507090054 | 42 | 0 | 0.0 | 0.0 | 0.00 | 0.00 | 0.00 | 80 | 1020.6 |
| 20260507085534 | 42 | 0 | 0.0 | 0.0 | 0.00 | 0.00 | 0.00 | 80 | 1020.6 |
| 20260507085035 | 42 | 0 | 0.0 | 0.0 | 0.00 | 0.00 | 0.00 | 80 | 1020.6 |
| 20260507084548 | 43 | 0 | 0.0 | 0.0 | 0.00 | 0.00 | 0.00 | 80 | 1020.5 |
| 20260507084030 | 43 | 0 | 0.0 | 0.0 | 0.00 | 0.00 | 0.00 | 80 | 1020.6 |
| 20260507083529 | 43 | 0 | 0.0 | 0.0 | 0.00 | 0.00 | 0.00 | 79 | 1020.6 |
| 20260507083045 | 44 | 0 | 0.0 | 0.0 | 0.00 | 0.00 | 0.00 | 80 | 1020.7 |
| 20260507082528 | 44 | 0 | 0.0 | 0.0 | 0.00 | 0.00 | 0.00 | 79 | 1020.7 |
| 20260507082028 | 44 | 0 | 0.0 | 1.0 | 0.00 | 0.00 | 0.00 | 80 | 1020.7 |
| 20260507081544 | 44 | 0 | 0.0 | 2.0 | 0.00 | 0.00 | 0.00 | 79 | 1020.8 |
| 20260507081029 | 44 | 0 | 0.0 | 2.0 | 0.00 | 0.00 | 0.00 | 79 | 1020.6 |
| 20260507080533 | 45 | 0 | 0.0 | 1.0 | 0.00 | 0.00 | 0.00 | 79 | 1020.7 |
| 20260507080053 | 45 | 0 | 0.0 | 3.0 | 0.00 | 0.00 | 0.00 | 78 | 1020.8 |
| 20260507075529 | 45 | 0 | 0.0 | 3.0 | 0.00 | 0.00 | 0.00 | 77 | 1020.9 |
| 20260507075032 | 45 | 0 | 0.0 | 3.0 | 0.00 | 0.00 | 0.00 | 77 | 1020.7 |
| 20260507074540 | 45 | 105 | 0.0 | 4.0 | 0.00 | 0.00 | 0.00 | 76 | 1020.6 |
| 20260507074028 | 45 | 0 | 1.0 | 4.0 | 0.00 | 0.00 | 0.00 | 75 | 1020.5 |
| 20260507073536 | 45 | 0 | 0.0 | 3.0 | 0.00 | 0.00 | 0.00 | 75 | 1021.0 |
| 20260507073042 | 46 | 319 | 0.0 | 5.0 | 0.00 | 0.00 | 0.00 | 74 | 1021.7 |
| 20260507072529 | 46 | 307 | 1.0 | 5.0 | 0.00 | 0.00 | 0.00 | 73 | 1021.8 |
| 20260507072029 | 46 | 304 | 1.0 | 4.0 | 0.00 | 0.00 | 0.00 | 71 | 1021.5 |
| 20260507071549 | 46 | 49 | 0.0 | 5.0 | 0.00 | 0.00 | 0.00 | 70 | 1021.5 |
| 20260507071029 | 47 | 0 | 1.0 | 5.0 | 0.00 | 0.00 | 0.00 | 69 | 1021.5 |
| 20260507070532 | 47 | 0 | 1.0 | 5.0 | 0.00 | 0.00 | 0.00 | 68 | 1021.7 |
| 20260507065528 | 47 | 298 | 1.0 | 7.0 | 0.00 | 0.00 | 0.00 | 67 | 1022.1 |
| 20260507065028 | 47 | 336 | 2.0 | 6.0 | 0.00 | 0.00 | 0.00 | 67 | 1022.2 |
| 20260507064552 | 47 | 323 | 0.0 | 5.0 | 0.00 | 0.00 | 0.00 | 66 | 1022.0 |
| 20260507064029 | 47 | 14 | 0.0 | 5.0 | 0.00 | 0.00 | 0.00 | 65 | 1021.8 |
| 20260507063529 | 47 | 0 | 1.0 | 5.0 | 0.00 | 0.00 | 0.00 | 65 | 1021.9 |
| 20260507063044 | 47 | 19 | 0.0 | 4.0 | 0.00 | 0.00 | 0.00 | 64 | 1021.8 |
| 20260507062528 | 47 | 19 | 0.0 | 4.0 | 0.00 | 0.00 | 0.00 | 64 | 1021.7 |
| 20260507062028 | 47 | 0 | 1.0 | 4.0 | 0.00 | 0.00 | 0.00 | 64 | 1021.8 |
| 20260507061544 | 47 | 311 | 1.0 | 3.0 | 0.00 | 0.00 | 0.00 | 64 | 1021.8 |
| 20260507061033 | 47 | 77 | 0.0 | 4.0 | 0.00 | 0.00 | 0.00 | 64 | 1021.6 |
| 20260507060528 | 47 | 0 | 0.0 | 4.0 | 0.00 | 0.00 | 0.00 | 64 | 1021.4 |
| 20260507060044 | 47 | 43 | 1.0 | 4.0 | 0.00 | 0.00 | 0.00 | 64 | 1021.3 |
| 20260507055528 | 47 | 47 | 1.0 | 8.0 | 0.00 | 0.00 | 0.00 | 64 | 1021.3 |
| 20260507055029 | 48 | 53 | 1.0 | 8.0 | 0.00 | 0.00 | 0.00 | 63 | 1021.1 |
| 20260507054559 | 48 | 0 | 1.0 | 7.0 | 0.00 | 0.00 | 0.00 | 63 | 1021.1 |
| 20260507054031 | 48 | 327 | 2.0 | 7.0 | 0.00 | 0.00 | 0.00 | 63 | 1021.4 |
| 20260507053529 | 48 | 346 | 2.0 | 9.0 | 0.00 | 0.00 | 0.00 | 63 | 1021.3 |
| 20260507053038 | 47 | 25 | 1.0 | 10.0 | 0.00 | 0.00 | 0.00 | 63 | 1021.2 |
| 20260507052532 | 47 | 97 | 2.0 | 10.0 | 0.00 | 0.00 | 0.00 | 63 | 1021.1 |
| 20260507052031 | 47 | 89 | 0.0 | 5.0 | 0.00 | 0.00 | 0.00 | 63 | 1021.1 |
| 20260507051546 | 47 | 0 | 1.0 | 6.0 | 0.00 | 0.00 | 0.00 | 64 | 1021.1 |
| 20260507051029 | 47 | 0 | 1.0 | 6.0 | 0.00 | 0.00 | 0.00 | 63 | 1021.0 |
| 20260507050530 | 48 | 82 | 1.0 | 6.0 | 0.00 | 0.00 | 0.00 | 63 | 1021.0 |
| 20260507050050 | 48 | 325 | 1.0 | 9.0 | 0.00 | 0.00 | 0.00 | 62 | 1020.9 |
| 20260507045529 | 48 | 317 | 2.0 | 9.0 | 0.00 | 0.00 | 0.00 | 62 | 1021.1 |
| 20260507045029 | 48 | 288 | 2.0 | 7.0 | 0.00 | 0.00 | 0.00 | 61 | 1021.4 |
| 20260507044552 | 49 | 306 | 2.0 | 8.0 | 0.00 | 0.00 | 0.00 | 60 | 1021.4 |
| 20260507044028 | 49 | 315 | 2.0 | 8.0 | 0.00 | 0.00 | 0.00 | 60 | 1021.1 |
| 20260507043528 | 49 | 316 | 2.0 | 7.0 | 0.00 | 0.00 | 0.00 | 60 | 1021.3 |
| 20260507043047 | 49 | 5 | 2.0 | 9.0 | 0.00 | 0.00 | 0.00 | 60 | 1021.0 |
| 20260507042528 | 49 | 284 | 1.0 | 10.0 | 0.00 | 0.00 | 0.00 | 60 | 1020.9 |
| 20260507042028 | 49 | 49 | 2.0 | 10.0 | 0.00 | 0.00 | 0.00 | 59 | 1020.8 |
| 20260507041558 | 49 | 121 | 2.0 | 8.0 | 0.00 | 0.00 | 0.00 | 59 | 1020.7 |
| 20260507041033 | 49 | 30 | 1.0 | 8.0 | 0.00 | 0.00 | 0.00 | 59 | 1020.6 |
| 20260507040528 | 50 | 77 | 2.0 | 8.0 | 0.00 | 0.00 | 0.00 | 58 | 1020.4 |
| 20260507040045 | 50 | 301 | 2.0 | 9.0 | 0.00 | 0.00 | 0.00 | 58 | 1020.4 |
| 20260507035531 | 50 | 0 | 2.0 | 9.0 | 0.00 | 0.00 | 0.00 | 58 | 1020.6 |
| 20260507035029 | 50 | 317 | 2.0 | 9.0 | 0.00 | 0.00 | 0.00 | 58 | 1020.6 |
| 20260507034551 | 51 | 315 | 2.0 | 9.0 | 0.00 | 0.00 | 0.00 | 58 | 1020.5 |
| 20260507034028 | 51 | 63 | 2.0 | 11.0 | 0.00 | 0.00 | 0.00 | 57 | 1020.4 |
| 20260507033528 | 51 | 313 | 3.0 | 11.0 | 0.00 | 0.00 | 0.00 | 57 | 1020.3 |
| 20260507033045 | 51 | 346 | 2.0 | 8.0 | 0.00 | 0.00 | 0.00 | 58 | 1020.3 |
| 20260507032528 | 52 | 0 | 1.0 | 8.0 | 0.00 | 0.00 | 0.00 | 59 | 1020.2 |
| 20260507032028 | 52 | 68 | 1.0 | 8.0 | 0.00 | 0.00 | 0.00 | 59 | 1020.2 |
| 20260507031542 | 52 | 0 | 2.0 | 8.0 | 0.00 | 0.00 | 0.00 | 58 | 1020.2 |
| 20260507031028 | 52 | 304 | 2.0 | 10.0 | 0.00 | 0.00 | 0.00 | 57 | 1019.9 |
| 20260507030529 | 53 | 11 | 2.0 | 10.0 | 0.00 | 0.00 | 0.00 | 55 | 1019.7 |
| 20260507030046 | 53 | 65 | 3.0 | 9.0 | 0.00 | 0.00 | 0.00 | 54 | 1019.7 |
| 20260507025527 | 53 | 309 | 3.0 | 9.0 | 0.00 | 0.00 | 0.00 | 54 | 1019.5 |
| 20260507025029 | 53 | 255 | 2.0 | 9.0 | 0.00 | 0.00 | 0.00 | 53 | 1019.4 |
| 20260507024549 | 54 | 17 | 2.0 | 11.0 | 0.00 | 0.00 | 0.00 | 53 | 1019.4 |
| 20260507024028 | 54 | 310 | 2.0 | 13.0 | 0.00 | 0.00 | 0.00 | 52 | 1019.4 |
| 20260507023528 | 54 | 318 | 1.0 | 13.0 | 0.00 | 0.00 | 0.00 | 52 | 1018.9 |
| 20260507023044 | 55 | 291 | 3.0 | 13.0 | 0.00 | 0.00 | 0.00 | 52 | 1018.8 |
| 20260507022529 | 55 | 34 | 1.0 | 8.0 | 0.00 | 0.00 | 0.00 | 52 | 1018.7 |
| 20260507022029 | 55 | 34 | 2.0 | 8.0 | 0.00 | 0.00 | 0.00 | 52 | 1018.6 |
| 20260507021549 | 55 | 332 | 2.0 | 6.0 | 0.00 | 0.00 | 0.00 | 53 | 1018.4 |
| 20260507021028 | 55 | 286 | 1.0 | 6.0 | 0.00 | 0.00 | 0.00 | 53 | 1018.2 |
| 20260507020528 | 55 | 337 | 1.0 | 6.0 | 0.00 | 0.00 | 0.00 | 53 | 1018.2 |
| 20260507020050 | 55 | 319 | 1.0 | 7.0 | 0.00 | 0.00 | 0.00 | 53 | 1018.0 |
| 20260507015528 | 55 | 312 | 1.0 | 7.0 | 0.00 | 0.00 | 0.00 | 52 | 1017.8 |
| 20260507015029 | 55 | 0 | 0.0 | 8.0 | 0.00 | 0.00 | 0.00 | 52 | 1017.7 |
| 20260507014606 | 56 | 101 | 2.0 | 9.0 | 0.00 | 0.00 | 0.00 | 52 | 1017.2 |
| 20260507014028 | 56 | 51 | 2.0 | 9.0 | 0.00 | 0.00 | 0.00 | 52 | 1017.2 |
| 20260507013527 | 56 | 67 | 2.0 | 6.0 | 0.00 | 0.00 | 0.00 | 51 | 1016.8 |
| 20260507013048 | 56 | 121 | 1.0 | 6.0 | 0.00 | 0.00 | 0.00 | 51 | 1016.6 |
| 20260507012529 | 57 | 58 | 1.0 | 7.0 | 0.00 | 0.00 | 0.00 | 50 | 1016.2 |
| 20260507012032 | 57 | 77 | 2.0 | 10.0 | 0.00 | 0.00 | 0.00 | 50 | 1016.2 |
| 20260507011555 | 57 | 70 | 3.0 | 10.0 | 0.00 | 0.00 | 0.00 | 50 | 1016.0 |
| 20260507011028 | 57 | 38 | 3.0 | 10.0 | 0.00 | 0.00 | 0.00 | 50 | 1016.1 |
| 20260507010528 | 57 | 61 | 4.0 | 13.0 | 0.00 | 0.00 | 0.00 | 49 | 1015.9 |
| 20260507010046 | 58 | 69 | 3.0 | 13.0 | 0.00 | 0.00 | 0.00 | 49 | 1015.6 |
| 20260507005533 | 58 | 86 | 6.0 | 13.0 | 0.00 | 0.00 | 0.00 | 49 | 1015.6 |
| 20260507005028 | 58 | 41 | 3.0 | 9.0 | 0.00 | 0.00 | 0.00 | 49 | 1015.4 |
| 20260507004540 | 58 | 16 | 3.0 | 9.0 | 0.00 | 0.00 | 0.00 | 49 | 1015.5 |
| 20260507004028 | 58 | 96 | 3.0 | 10.0 | 0.00 | 0.00 | 0.00 | 49 | 1015.5 |
| 20260507003529 | 58 | 54 | 3.0 | 10.0 | 0.00 | 0.00 | 0.00 | 49 | 1015.4 |
| 20260507003038 | 59 | 31 | 2.0 | 10.0 | 0.00 | 0.00 | 0.00 | 48 | 1015.2 |
| 20260507002528 | 59 | 108 | 3.0 | 12.0 | 0.00 | 0.00 | 0.00 | 48 | 1015.2 |
| 20260507002030 | 59 | 22 | 2.0 | 12.0 | 0.00 | 0.00 | 0.00 | 48 | 1015.2 |
| 20260507001558 | 59 | 126 | 3.0 | 11.0 | 0.00 | 0.00 | 0.00 | 49 | 1015.0 |
| 20260507001027 | 59 | 51 | 4.0 | 11.0 | 0.00 | 0.00 | 0.00 | 48 | 1014.8 |
| 20260507000531 | 59 | 80 | 3.0 | 11.0 | 0.00 | 0.00 | 0.00 | 48 | 1014.8 |
| 20260507000057 | 59 | 44 | 5.0 | 15.0 | 0.00 | 0.00 | 0.00 | 48 | 1014.7 |
| 20260506235530 | 59 | 44 | 5.0 | 15.0 | 0.00 | 0.00 | 0.00 | 48 | 1014.6 |
| 20260506235028 | 59 | 88 | 6.0 | 15.0 | 0.00 | 0.00 | 0.00 | 47 | 1014.6 |
| 20260506234601 | 60 | 57 | 2.0 | 8.0 | 0.00 | 0.00 | 0.00 | 48 | 1014.5 |
| 20260506234028 | 59 | 105 | 3.0 | 12.0 | 0.00 | 0.00 | 0.00 | 48 | 1014.6 |
| 20260506233529 | 59 | 74 | 2.0 | 13.0 | 0.00 | 0.00 | 0.00 | 48 | 1014.9 |
| 20260506233048 | 59 | 56 | 5.0 | 13.0 | 0.00 | 0.00 | 0.00 | 48 | 1015.1 |
| 20260506232529 | 60 | 53 | 4.0 | 14.0 | 0.00 | 0.00 | 0.00 | 48 | 1015.0 |
| 20260506232028 | 60 | 119 | 4.0 | 14.0 | 0.00 | 0.00 | 0.00 | 48 | 1015.0 |
| 20260506231543 | 60 | 62 | 6.0 | 14.0 | 0.00 | 0.00 | 0.00 | 47 | 1014.9 |
| 20260506231029 | 60 | 55 | 4.0 | 12.0 | 0.00 | 0.00 | 0.00 | 47 | 1014.7 |
| 20260506230529 | 60 | 52 | 4.0 | 12.0 | 0.00 | 0.00 | 0.00 | 47 | 1014.7 |
| 20260506230100 | 60 | 53 | 5.0 | 12.0 | 0.00 | 0.00 | 0.00 | 47 | 1014.6 |
| 20260506225529 | 60 | 25 | 4.0 | 12.0 | 0.00 | 0.00 | 0.00 | 47 | 1014.7 |
| 20260506225028 | 60 | 317 | 3.0 | 14.0 | 0.00 | 0.00 | 0.00 | 48 | 1014.8 |
| 20260506224550 | 59 | 78 | 4.0 | 14.0 | 0.00 | 0.00 | 0.00 | 48 | 1015.0 |
| 20260506224027 | 59 | 59 | 4.0 | 16.0 | 0.00 | 0.00 | 0.00 | 49 | 1015.1 |
| 20260506223531 | 59 | 86 | 6.0 | 16.0 | 0.00 | 0.00 | 0.00 | 49 | 1015.1 |
| 20260506223044 | 59 | 54 | 7.0 | 16.0 | 0.00 | 0.00 | 0.00 | 48 | 1015.1 |
| 20260506222530 | 60 | 53 | 6.0 | 13.0 | 0.00 | 0.00 | 0.00 | 48 | 1015.1 |
| 20260506222031 | 59 | 115 | 4.0 | 15.0 | 0.00 | 0.00 | 0.00 | 49 | 1015.1 |
| 20260506221555 | 59 | 40 | 6.0 | 15.0 | 0.00 | 0.00 | 0.00 | 49 | 1015.1 |
| 20260506221028 | 60 | 59 | 5.0 | 16.0 | 0.00 | 0.00 | 0.00 | 48 | 1015.2 |
| 20260506220528 | 59 | 74 | 5.0 | 16.0 | 0.00 | 0.00 | 0.00 | 48 | 1015.0 |
| 20260506220047 | 59 | 92 | 7.0 | 16.0 | 0.00 | 0.00 | 0.00 | 48 | 1015.1 |
| 20260506215528 | 59 | 43 | 5.0 | 14.0 | 0.00 | 0.00 | 0.00 | 49 | 1015.1 |
| 20260506215028 | 59 | 50 | 5.0 | 16.0 | 0.00 | 0.00 | 0.00 | 49 | 1015.2 |
| 20260506214543 | 59 | 57 | 7.0 | 16.0 | 0.00 | 0.00 | 0.00 | 49 | 1015.4 |
| 20260506214029 | 60 | 68 | 7.0 | 16.0 | 0.00 | 0.00 | 0.00 | 48 | 1015.1 |
| 20260506213528 | 59 | 62 | 6.0 | 15.0 | 0.00 | 0.00 | 0.00 | 48 | 1015.1 |
| 20260506213044 | 60 | 103 | 7.0 | 14.0 | 0.00 | 0.00 | 0.00 | 48 | 1015.1 |
| 20260506212528 | 60 | 59 | 4.0 | 13.0 | 0.00 | 0.00 | 0.00 | 48 | 1015.3 |
| 20260506212030 | 60 | 53 | 8.0 | 14.0 | 0.00 | 0.00 | 0.00 | 47 | 1015.3 |
| 20260506211553 | 60 | 23 | 3.0 | 15.0 | 0.00 | 0.00 | 0.00 | 48 | 1015.3 |
| 20260506211028 | 60 | 80 | 4.0 | 16.0 | 0.00 | 0.00 | 0.00 | 48 | 1015.4 |
| 20260506210528 | 60 | 68 | 5.0 | 16.0 | 0.00 | 0.00 | 0.00 | 48 | 1015.4 |
| 20260506210047 | 60 | 91 | 6.0 | 13.0 | 0.00 | 0.00 | 0.00 | 48 | 1015.5 |
| 20260506205529 | 60 | 99 | 5.0 | 13.0 | 0.00 | 0.00 | 0.00 | 48 | 1015.5 |
| 20260506205029 | 59 | 78 | 2.0 | 12.0 | 0.00 | 0.00 | 0.00 | 50 | 1015.6 |
| 20260506204546 | 59 | 115 | 4.0 | 18.0 | 0.00 | 0.00 | 0.00 | 49 | 1015.7 |
| 20260506204029 | 59 | 95 | 8.0 | 18.0 | 0.00 | 0.00 | 0.00 | 48 | 1015.5 |
| 20260506203528 | 61 | 92 | 5.0 | 14.0 | 0.00 | 0.00 | 0.00 | 46 | 1015.3 |
| 20260506203044 | 61 | 63 | 4.0 | 11.0 | 0.00 | 0.00 | 0.00 | 46 | 1015.4 |
| 20260506202528 | 60 | 91 | 4.0 | 11.0 | 0.00 | 0.00 | 0.00 | 47 | 1015.4 |
| 20260506202028 | 60 | 80 | 3.0 | 14.0 | 0.00 | 0.00 | 0.00 | 47 | 1015.3 |
| 20260506201542 | 60 | 114 | 2.0 | 16.0 | 0.00 | 0.00 | 0.00 | 48 | 1015.4 |
| 20260506201027 | 60 | 67 | 4.0 | 16.0 | 0.00 | 0.00 | 0.00 | 48 | 1015.4 |
| 20260506200528 | 59 | 114 | 5.0 | 16.0 | 0.00 | 0.00 | 0.00 | 48 | 1015.3 |
| 20260506200038 | 59 | 98 | 4.0 | 12.0 | 0.00 | 0.00 | 0.00 | 49 | 1015.4 |
| 20260506195528 | 60 | 66 | 5.0 | 12.0 | 0.00 | 0.00 | 0.00 | 48 | 1015.4 |
| 20260506195028 | 60 | 28 | 5.0 | 12.0 | 0.00 | 0.00 | 0.00 | 47 | 1015.4 |
| 20260506194546 | 59 | 35 | 2.0 | 11.0 | 0.00 | 0.00 | 0.00 | 49 | 1015.6 |
| 20260506194030 | 59 | 65 | 4.0 | 12.0 | 0.00 | 0.00 | 0.00 | 49 | 1015.7 |
| 20260506193527 | 59 | 13 | 4.0 | 12.0 | 0.00 | 0.00 | 0.00 | 49 | 1015.7 |
| 20260506193051 | 59 | 109 | 4.0 | 10.0 | 0.00 | 0.00 | 0.00 | 49 | 1015.7 |
| 20260506192527 | 59 | 51 | 2.0 | 10.0 | 0.00 | 0.00 | 0.00 | 48 | 1015.8 |
| 20260506192029 | 60 | 55 | 3.0 | 10.0 | 0.00 | 0.00 | 0.00 | 47 | 1015.8 |
| 20260506191542 | 59 | 340 | 3.0 | 12.0 | 0.00 | 0.00 | 0.00 | 49 | 1015.8 |
| 20260506191030 | 59 | 59 | 2.0 | 15.0 | 0.00 | 0.00 | 0.00 | 49 | 1015.8 |
| 20260506190529 | 58 | 15 | 1.0 | 15.0 | 0.00 | 0.00 | 0.00 | 51 | 1015.9 |
| 20260506190043 | 58 | 78 | 5.0 | 15.0 | 0.00 | 0.00 | 0.00 | 49 | 1015.9 |
| 20260506185528 | 58 | 24 | 3.0 | 14.0 | 0.00 | 0.00 | 0.00 | 51 | 1015.8 |
| 20260506185031 | 58 | 94 | 4.0 | 12.0 | 0.00 | 0.00 | 0.00 | 50 | 1015.7 |
| 20260506184542 | 57 | 93 | 2.0 | 12.0 | 0.00 | 0.00 | 0.00 | 52 | 1015.9 |
| 20260506184028 | 56 | 0 | 4.0 | 12.0 | 0.00 | 0.00 | 0.00 | 52 | 1016.1 |
| 20260506183529 | 57 | 101 | 2.0 | 13.0 | 0.00 | 0.00 | 0.00 | 51 | 1016.1 |
| 20260506183038 | 57 | 38 | 4.0 | 13.0 | 0.00 | 0.00 | 0.00 | 52 | 1016.3 |
| 20260506182528 | 58 | 71 | 4.0 | 14.0 | 0.00 | 0.00 | 0.00 | 50 | 1016.3 |
| 20260506182028 | 58 | 68 | 6.0 | 14.0 | 0.00 | 0.00 | 0.00 | 50 | 1016.4 |
| 20260506181557 | 58 | 109 | 3.0 | 10.0 | 0.00 | 0.00 | 0.00 | 50 | 1016.4 |
| 20260506181030 | 57 | 45 | 3.0 | 10.0 | 0.00 | 0.00 | 0.00 | 52 | 1016.4 |
| 20260506180528 | 58 | 355 | 2.0 | 10.0 | 0.00 | 0.00 | 0.00 | 51 | 1016.6 |
| 20260506180045 | 58 | 82 | 2.0 | 10.0 | 0.00 | 0.00 | 0.00 | 50 | 1016.5 |
| 20260506175529 | 59 | 88 | 3.0 | 10.0 | 0.00 | 0.00 | 0.00 | 49 | 1016.5 |
| 20260506175029 | 58 | 82 | 1.0 | 8.0 | 0.00 | 0.00 | 0.00 | 51 | 1016.6 |
| 20260506174542 | 57 | 126 | 2.0 | 8.0 | 0.00 | 0.00 | 0.00 | 52 | 1016.6 |
| 20260506174033 | 57 | 46 | 2.0 | 7.0 | 0.00 | 0.00 | 0.00 | 52 | 1016.6 |
| 20260506173532 | 57 | 91 | 2.0 | 8.0 | 0.00 | 0.00 | 0.00 | 52 | 1016.9 |
| 20260506173112 | 57 | 16 | 3.0 | 9.0 | 0.00 | 0.00 | 0.00 | 51 | 1016.5 |
| 20260506172529 | 57 | 61 | 2.0 | 9.0 | 0.00 | 0.00 | 0.00 | 53 | 1016.6 |
| 20260506172028 | 55 | 91 | 1.0 | 7.0 | 0.00 | 0.00 | 0.00 | 53 | 1016.8 |
| 20260506171543 | 56 | 71 | 1.0 | 10.0 | 0.00 | 0.00 | 0.00 | 52 | 1016.6 |
| 20260506171028 | 56 | 144 | 2.0 | 10.0 | 0.00 | 0.00 | 0.00 | 54 | 1016.6 |
| 20260506170529 | 56 | 102 | 4.0 | 10.0 | 0.00 | 0.00 | 0.00 | 52 | 1016.8 |
| 20260506170052 | 56 | 147 | 3.0 | 10.0 | 0.00 | 0.00 | 0.00 | 54 | 1016.8 |
| 20260506165529 | 55 | 79 | 1.0 | 9.0 | 0.00 | 0.00 | 0.00 | 55 | 1016.7 |
| 20260506165030 | 54 | 78 | 1.0 | 10.0 | 0.00 | 0.00 | 0.00 | 55 | 1016.8 |
| 20260506164545 | 54 | 0 | 1.0 | 10.0 | 0.00 | 0.00 | 0.00 | 56 | 1016.8 |
| 20260506164031 | 55 | 78 | 4.0 | 10.0 | 0.00 | 0.00 | 0.00 | 53 | 1016.8 |
| 20260506163529 | 56 | 0 | 1.0 | 11.0 | 0.00 | 0.00 | 0.00 | 54 | 1016.7 |
| 20260506163053 | 55 | 56 | 2.0 | 11.0 | 0.00 | 0.00 | 0.00 | 55 | 1016.7 |
| 20260506162529 | 55 | 90 | 2.0 | 7.0 | 0.00 | 0.00 | 0.00 | 55 | 1016.7 |
| 20260506162029 | 54 | 342 | 1.0 | 7.0 | 0.00 | 0.00 | 0.00 | 56 | 1016.7 |
| 20260506161544 | 53 | 5 | 2.0 | 8.0 | 0.00 | 0.00 | 0.00 | 58 | 1016.7 |
| 20260506161029 | 53 | 98 | 3.0 | 8.0 | 0.00 | 0.00 | 0.00 | 56 | 1016.5 |
| 20260506160529 | 54 | 251 | 3.0 | 8.0 | 0.00 | 0.00 | 0.00 | 56 | 1016.4 |
| 20260506160044 | 54 | 46 | 1.0 | 7.0 | 0.00 | 0.00 | 0.00 | 57 | 1016.4 |
| 20260506155531 | 52 | 67 | 1.0 | 7.0 | 0.00 | 0.00 | 0.00 | 61 | 1016.4 |
| 20260506155032 | 51 | 40 | 2.0 | 7.0 | 0.00 | 0.00 | 0.00 | 62 | 1016.4 |
| 20260506154604 | 50 | 0 | 1.0 | 7.0 | 0.00 | 0.00 | 0.00 | 61 | 1016.4 |
| 20260506154034 | 51 | 90 | 2.0 | 7.0 | 0.00 | 0.00 | 0.00 | 61 | 1016.4 |
| 20260506153532 | 50 | 106 | 0.0 | 6.0 | 0.00 | 0.00 | 0.00 | 61 | 1016.2 |
| 20260506153038 | 50 | 0 | 0.0 | 8.0 | 0.00 | 0.00 | 0.00 | 62 | 1016.2 |
| 20260506152532 | 50 | 126 | 1.0 | 8.0 | 0.00 | 0.00 | 0.00 | 62 | 1016.2 |
| 20260506152033 | 49 | 0 | 2.0 | 8.0 | 0.00 | 0.00 | 0.00 | 64 | 1016.1 |
| 20260506151546 | 49 | 150 | 2.0 | 7.0 | 0.00 | 0.00 | 0.00 | 63 | 1016.2 |
| 20260506151033 | 49 | 0 | 2.0 | 7.0 | 0.00 | 0.00 | 0.00 | 63 | 1016.3 |
| 20260506150531 | 49 | 0 | 1.0 | 4.0 | 0.00 | 0.00 | 0.00 | 63 | 1016.3 |
| 20260506150044 | 49 | 0 | 0.0 | 6.0 | 0.00 | 0.00 | 0.00 | 64 | 1016.3 |
| 20260506145532 | 48 | 83 | 0.0 | 7.0 | 0.00 | 0.00 | 0.00 | 65 | 1016.2 |
| 20260506145033 | 48 | 84 | 1.0 | 7.0 | 0.00 | 0.00 | 0.00 | 64 | 1016.1 |
| 20260506144551 | 48 | 111 | 1.0 | 7.0 | 0.00 | 0.00 | 0.00 | 64 | 1016.0 |
| 20260506144029 | 48 | 0 | 1.0 | 7.0 | 0.00 | 0.00 | 0.00 | 64 | 1015.9 |
| 20260506143529 | 48 | 159 | 1.0 | 7.0 | 0.00 | 0.00 | 0.00 | 64 | 1015.8 |
| 20260506143041 | 48 | 70 | 1.0 | 8.0 | 0.00 | 0.00 | 0.00 | 64 | 1015.6 |
| 20260506142533 | 48 | 80 | 1.0 | 8.0 | 0.00 | 0.00 | 0.00 | 64 | 1015.5 |
| 20260506142034 | 48 | 101 | 2.0 | 8.0 | 0.00 | 0.00 | 0.00 | 63 | 1015.3 |
| 20260506141541 | 48 | 28 | 2.0 | 10.0 | 0.00 | 0.00 | 0.00 | 66 | 1015.1 |
| 20260506141033 | 47 | 77 | 2.0 | 10.0 | 0.00 | 0.00 | 0.00 | 65 | 1015.2 |
| 20260506140531 | 46 | 71 | 3.0 | 10.0 | 0.00 | 0.00 | 0.00 | 67 | 1015.5 |
| 20260506140039 | 46 | 65 | 2.0 | 8.0 | 0.00 | 0.00 | 0.00 | 67 | 1015.4 |
| 20260506135530 | 46 | 46 | 3.0 | 10.0 | 0.00 | 0.00 | 0.00 | 67 | 1015.4 |
| 20260506135031 | 46 | 74 | 2.0 | 10.0 | 0.00 | 0.00 | 0.00 | 68 | 1015.5 |
| 20260506134544 | 45 | 67 | 2.0 | 9.0 | 0.00 | 0.00 | 0.00 | 67 | 1015.5 |
| 20260506134033 | 45 | 118 | 2.0 | 8.0 | 0.00 | 0.00 | 0.00 | 68 | 1015.4 |
| 20260506133532 | 45 | 46 | 2.0 | 8.0 | 0.00 | 0.00 | 0.00 | 68 | 1015.5 |
| 20260506133056 | 44 | 82 | 1.0 | 8.0 | 0.00 | 0.00 | 0.00 | 69 | 1015.5 |
| 20260506132532 | 44 | 155 | 1.0 | 8.0 | 0.00 | 0.00 | 0.00 | 69 | 1015.7 |
| 20260506132033 | 44 | 0 | 1.0 | 6.0 | 0.00 | 0.00 | 0.00 | 70 | 1015.8 |
| 20260506131545 | 44 | 77 | 1.0 | 6.0 | 0.00 | 0.00 | 0.00 | 70 | 1016.0 |
| 20260506131029 | 44 | 28 | 1.0 | 6.0 | 0.00 | 0.00 | 0.00 | 71 | 1016.2 |
| 20260506130533 | 44 | 67 | 1.0 | 6.0 | 0.00 | 0.00 | 0.00 | 71 | 1016.1 |
| 20260506130043 | 43 | 219 | 1.0 | 5.0 | 0.00 | 0.00 | 0.00 | 71 | 1016.0 |
| 20260506125529 | 43 | 61 | 1.0 | 6.0 | 0.00 | 0.00 | 0.00 | 71 | 1016.1 |
| 20260506125029 | 43 | 51 | 1.0 | 7.0 | 0.00 | 0.00 | 0.00 | 72 | 1016.0 |
| 20260506124542 | 43 | 98 | 1.0 | 7.0 | 0.00 | 0.00 | 0.00 | 72 | 1015.9 |
| 20260506124029 | 43 | 46 | 1.0 | 5.0 | 0.00 | 0.00 | 0.00 | 72 | 1016.0 |
| 20260506123529 | 43 | 86 | 1.0 | 6.0 | 0.00 | 0.00 | 0.00 | 72 | 1016.0 |
| 20260506123047 | 43 | 70 | 0.0 | 6.0 | 0.00 | 0.00 | 0.00 | 72 | 1016.2 |
| 20260506122530 | 43 | 69 | 1.0 | 7.0 | 0.00 | 0.00 | 0.00 | 72 | 1015.9 |
| 20260506122031 | 43 | 0 | 1.0 | 7.0 | 0.00 | 0.00 | 0.00 | 73 | 1015.7 |
| 20260506121545 | 43 | 98 | 1.0 | 7.0 | 0.00 | 0.00 | 0.00 | 73 | 1015.8 |
| 20260506121031 | 43 | 78 | 1.0 | 7.0 | 0.00 | 0.00 | 0.00 | 73 | 1015.8 |
| 20260506120530 | 43 | 71 | 1.0 | 6.0 | 0.00 | 0.00 | 0.00 | 73 | 1015.6 |
| 20260506120044 | 43 | 104 | 1.0 | 6.0 | 0.00 | 0.00 | 0.00 | 73 | 1015.4 |
| 20260506115531 | 43 | 76 | 1.0 | 8.0 | 0.00 | 0.00 | 0.00 | 72 | 1015.4 |
| 20260506115033 | 43 | 62 | 2.0 | 8.0 | 0.00 | 0.00 | 0.00 | 72 | 1015.4 |
| 20260506114548 | 43 | 0 | 1.0 | 7.0 | 0.00 | 0.00 | 0.00 | 74 | 1015.4 |
| 20260506114031 | 42 | 64 | 1.0 | 5.0 | 0.00 | 0.00 | 0.00 | 74 | 1015.4 |
| 20260506113530 | 42 | 88 | 1.0 | 5.0 | 0.00 | 0.00 | 0.00 | 75 | 1015.4 |
| 20260506113048 | 42 | 0 | 1.0 | 5.0 | 0.00 | 0.00 | 0.00 | 77 | 1015.3 |
| 20260506112531 | 42 | 0 | 1.0 | 5.0 | 0.00 | 0.00 | 0.00 | 79 | 1015.1 |
| 20260506112029 | 42 | 79 | 1.0 | 8.0 | 0.00 | 0.00 | 0.00 | 80 | 1015.1 |
| 20260506111540 | 42 | 65 | 1.0 | 8.0 | 0.00 | 0.00 | 0.00 | 80 | 1015.0 |
| 20260506111032 | 42 | 77 | 2.0 | 5.0 | 0.00 | 0.00 | 0.00 | 81 | 1015.0 |
| 20260506110532 | 42 | 96 | 1.0 | 6.0 | 0.00 | 0.00 | 0.00 | 81 | 1015.2 |
| 20260506110047 | 42 | 0 | 2.0 | 6.0 | 0.00 | 0.00 | 0.00 | 81 | 1015.3 |
| 20260506105532 | 42 | 116 | 1.0 | 6.0 | 0.00 | 0.00 | 0.00 | 82 | 1015.2 |
| 20260506105033 | 42 | 90 | 1.0 | 10.0 | 0.00 | 0.00 | 0.00 | 82 | 1015.3 |
| 20260506104608 | 42 | 17 | 2.0 | 10.0 | 0.00 | 0.00 | 0.00 | 82 | 1015.2 |
| 20260506104033 | 42 | 59 | 2.0 | 9.0 | 0.00 | 0.00 | 0.00 | 81 | 1015.1 |
| 20260506103533 | 43 | 63 | 2.0 | 9.0 | 0.00 | 0.00 | 0.00 | 80 | 1015.1 |
| 20260506103044 | 43 | 38 | 1.0 | 9.0 | 0.00 | 0.00 | 0.00 | 81 | 1015.2 |
| 20260506102533 | 43 | 47 | 2.0 | 9.0 | 0.00 | 0.00 | 0.00 | 81 | 1015.1 |
| 20260506102030 | 43 | 57 | 2.0 | 9.0 | 0.00 | 0.00 | 0.00 | 81 | 1015.2 |
| 20260506101548 | 43 | 41 | 1.0 | 7.0 | 0.00 | 0.00 | 0.00 | 81 | 1015.0 |
| 20260506101032 | 44 | 84 | 2.0 | 7.0 | 0.00 | 0.00 | 0.00 | 80 | 1015.0 |
| 20260506100532 | 44 | 74 | 1.0 | 6.0 | 0.00 | 0.00 | 0.00 | 80 | 1014.7 |
| 20260506100044 | 44 | 57 | 2.0 | 6.0 | 0.00 | 0.00 | 0.00 | 80 | 1014.6 |
| 20260506095529 | 44 | 0 | 1.0 | 9.0 | 0.00 | 0.00 | 0.00 | 80 | 1014.4 |
| 20260506095029 | 44 | 59 | 2.0 | 9.0 | 0.00 | 0.00 | 0.00 | 80 | 1014.3 |
| 20260506094540 | 44 | 44 | 1.0 | 9.0 | 0.00 | 0.00 | 0.00 | 80 | 1014.2 |
| 20260506094032 | 44 | 0 | 2.0 | 9.0 | 0.00 | 0.00 | 0.00 | 79 | 1014.0 |